RH
77 60 51 52 52 56 59 59 65 75 79 76 74 72 69 63 59 55 53 53 51 48 48 47 47 45 42 41 40 38 37 36 34 33 31 28 25 22 19 17 15 14 14 13 13 13 13 13 13 13 13 13 14 14 14 14 14 14 15 16 15 15 15 15 14 13 12 12 13 13 14 15 16 18 20 22 23 23 22 21 19 18 17 16 16
67 61 57 62 68 73 74 69 76 85 88 89 85 78 74 71 66 63 62 61 57 54 53 52 50 47 44 43 43 43 42 40 39 38 37 34 31 29 26 23 20 18 16 16 15 15 15 15 15 15 15 15 15 15 15 16 15 15 15 15 16 16 16 16 16 16 15 14 13 13 13 13 14 14 15 16 18 19 20 21 20 19 17 17 16
71 72 75 78 76 78 79 78 86 93 89 89 92 91 87 84 79 73 69 67 65 62 59 58 57 52 47 46 48 49 47 45 43 41 39 38 35 33 30 27 25 23 22 20 19 18 18 18 17 17 17 17 17 17 17 18 18 18 18 17 16 17 17 17 17 18 19 19 19 17 16 15 15 14 14 14 14 15 15 16 17 17 17 17 17
85 86 89 89 82 82 84 85 94 99 90 82 89 97 97 95 93 89 83 78 74 70 65 64 64 59 54 53 52 52 51 51 50 46 42 39 38 37 35 31 28 26 25 24 23 23 23 23 22 22 22 21 21 22 22 23 22 22 22 22 21 20 19 19 19 19 20 21 22 22 20 19 18 17 16 15 14 14 13 14 14 14 14 14 14
86 90 94 95 94 93 93 93 95 98 93 88 92 99 99 96 93 94 95 95 92 85 76 75 74 67 62 58 55 56 59 60 59 56 50 45 43 41 39 36 34 34 34 33 31 30 29 28 28 26 27 27 27 26 26 25 26 26 25 25 24 24 23 23 22 21 21 21 22 24 24 22 21 20 19 18 17 15 14 13 12 12 13 12 12
67 80 90 94 91 83 80 85 88 86 84 85 90 97 98 92 88 89 94 98 96 87 80 80 78 71 66 66 68 68 68 71 72 70 66 60 56 55 53 48 41 35 34 35 35 34 33 32 32 30 28 27 27 27 27 26 25 24 24 23 23 23 22 22 22 21 21 22 23 24 25 24 22 20 20 18 18 17 16 14 13 12 11 10 10
47 52 60 65 61 53 51 57 63 65 68 72 76 79 80 84 93 96 94 96 93 82 74 71 72 80 85 86 89 85 78 75 72 68 68 69 66 67 71 69 61 50 43 42 45 46 42 37 33 32 31 29 29 29 29 30 30 28 26 24 23 23 23 22 21 20 20 21 21 22 22 23 22 19 16 14 13 13 13 13 13 12 12 11 10
44 41 42 44 43 40 38 38 37 39 44 47 49 49 48 58 77 85 87 96 98 82 68 59 61 78 92 94 96 92 81 78 78 78 81 79 69 67 72 73 68 63 62 62 64 67 67 62 50 39 36 36 37 37 36 38 40 40 39 35 32 31 30 28 26 23 22 21 20 20 19 19 21 21 19 16 14 13 11 10 11 10 10 10 10
46 42 38 37 38 38 37 37 35 34 34 33 33 34 32 32 41 47 54 68 74 64 59 63 68 77 82 81 81 78 72 75 84 90 93 87 76 72 76 77 70 65 62 60 60 62 68 74 74 67 64 65 63 59 58 57 53 48 45 42 39 37 34 33 30 27 25 24 23 24 22 19 18 17 17 17 16 14 12 10 10 9 9 9 9
47 45 42 38 35 35 34 34 33 32 33 33 32 32 33 30 29 30 31 36 41 39 44 61 76 83 81 73 68 66 66 69 72 72 74 76 74 70 72 78 78 72 67 63 63 64 60 57 59 61 62 61 55 48 45 45 41 37 35 34 33 32 30 30 29 28 27 25 24 24 26 29 27 22 20 20 20 19 17 14 10 8 8 9 8
42 41 41 38 34 33 33 32 31 30 29 30 30 29 30 30 29 30 30 30 31 30 28 35 48 57 61 61 58 54 55 58 57 52 48 51 57 56 57 65 70 70 72 74 77 81 77 65 57 55 54 54 51 45 38 34 32 30 29 28 28 27 26 25 25 25 25 24 23 21 22 28 34 34 29 26 25 24 23 22 18 13 10 9 10
33 32 31 30 29 29 30 29 28 27 26 26 27 26 25 26 26 28 30 31 31 31 29 27 29 31 32 35 35 32 33 40 41 37 32 32 37 39 40 48 54 57 61 64 65 69 70 66 62 60 58 55 51 46 39 34 31 29 28 27 26 26 25 24 24 23 22 22 21 21 19 20 23 25 22 20 19 20 21 24 25 22 17 13 12
31 31 29 28 27 26 27 27 26 26 25 24 24 24 23 24 24 24 25 27 28 29 30 30 29 29 28 27 27 24 24 28 28 25 24 23 23 24 24 27 33 37 40 41 43 46 46 45 43 42 41 39 35 33 30 27 26 24 24 23 22 21 21 20 20 20 20 20 19 18 18 17 17 17 16 15 15 17 19 20 23 24 23 19 16
34 35 34 34 34 32 30 29 29 29 28 27 28 30 31 32 32 32 30 29 27 27 29 29 28 30 29 26 26 26 25 25 24 22 20 19 19 20 19 18 18 21 23 23 25 28 28 28 26 24 24 23 22 22 20 19 18 17 17 16 15 14 14 14 14 13 13 14 14 13 14 14 14 14 14 14 14 15 17 19 20 21 21 21 20
35 35 36 37 37 37 36 36 35 35 34 34 36 44 55 63 64 62 57 52 47 41 36 35 36 36 32 30 33 37 35 31 28 25 24 23 22 21 21 21 20 18 18 17 18 19 18 18 17 16 15 15 14 14 13 13 13 12 12 12 11 11 11 11 11 11 11 10 10 10 10 10 11 11 11 12 12 12 14 17 20 21 21 22 21
35 36 38 39 39 38 38 37 37 37 38 38 40 54 76 91 94 93 91 86 79 67 56 53 55 54 51 51 52 50 46 42 36 32 30 28 26 25 23 23 22 21 20 18 17 16 16 15 14 14 13 13 12 12 12 13 13 12 13 13 12 12 11 11 11 10 11 11 10 11 10 10 10 10 10 10 10 11 13 15 18 21 21 20 19
26 28 31 34 37 40 41 41 41 39 39 38 38 45 61 72 78 85 91 94 94 89 80 74 73 69 65 63 59 52 48 44 38 33 31 29 27 25 23 22 22 21 20 19 18 17 17 16 15 14 14 14 13 14 15 15 15 15 14 13 13 12 11 12 12 11 11 11 11 11 11 11 11 10 10 10 10 12 14 17 22 25 23 20 18
15 16 18 19 22 27 32 37 41 42 43 43 41 39 41 43 46 51 58 64 71 73 69 62 58 52 49 48 45 41 38 34 30 28 27 26 25 24 23 23 23 22 21 21 20 19 19 18 18 17 16 16 17 17 17 17 16 16 15 14 14 14 13 13 12 12 13 13 12 12 11 11 11 10 11 10 10 11 13 17 24 28 28 28 25
18 17 17 16 16 17 18 21 26 32 38 42 44 44 44 42 40 40 41 42 44 45 43 39 36 33 32 32 31 30 29 27 27 27 26 26 26 25 25 24 24 24 24 23 22 22 22 21 20 19 19 19 20 20 19 18 18 17 16 15 14 13 14 15 15 17 19 18 17 15 13 13 13 11 12 11 10 11 11 12 15 18 21 24 25
26 25 25 25 24 22 21 19 18 19 22 27 32 36 39 42 43 44 43 41 40 41 40 39 36 34 32 30 29 29 29 28 29 28 28 29 28 27 28 28 27 27 26 26 26 25 24 23 23 23 23 22 21 20 19 19 18 17 17 17 18 19 22 26 27 27 25 22 19 17 14 13 12 11 11 12 12 14 14 14 14 14 13 15 15
34 34 34 35 33 32 30 27 24 22 21 21 21 22 25 29 33 37 40 39 41 45 46 45 43 39 36 36 34 33 33 33 33 32 31 31 31 32 32 31 30 31 30 30 29 28 27 27 25 24 23 22 22 21 20 19 17 17 16 16 17 20 22 23 23 20 18 16 14 13 12 11 11 10 10 10 10 12 13 14 14 13 13 13 13
42 42 41 40 39 37 36 34 31 29 28 26 25 24 24 22 24 31 33 31 37 46 48 46 44 43 42 41 39 38 38 36 36 35 35 35 35 34 35 35 35 34 33 32 32 31 30 28 25 25 24 22 20 19 18 17 17 16 16 14 13 13 13 12 11 10 10 10 9 9 9 9 9 10 9 9 10 13 14 14 14 14 13 12 12
47 46 45 42 41 40 39 39 37 35 33 31 30 30 30 27 27 31 30 27 35 45 47 45 46 46 44 44 43 42 42 41 41 40 40 39 38 38 38 38 36 35 35 34 32 30 28 27 26 25 22 20 20 19 18 18 15 13 12 10 9 10 11 11 13 13 14 15 15 16 16 16 17 17 17 19 21 22 23 22 22 22 21 19 18
49 49 47 45 44 43 42 42 42 40 38 36 36 37 37 34 31 31 32 32 37 41 42 43 45 45 44 45 44 44 43 43 44 43 41 41 41 39 38 37 36 36 34 32 30 29 28 26 24 22 22 21 18 14 10 10 10 11 14 17 21 25 26 26 28 28 28 28 28 27 27 26 26 26 26 26 26 25 24 23 22 21 20 20 19
45 46 46 45 44 43 43 44 43 41 40 41 44 43 39 34 32 32 35 37 38 38 39 41 43 44 44 43 42 42 42 41 40 40 40 39 37 36 36 35 34 32 30 30 30 27 24 22 20 18 15 10 7 9 14 22 28 32 34 35 36 37 36 34 34 32 29 27 25 24 23 21 19 18 17 16 15 14 14 13 13 13 13 13 13
38 38 38 38 37 36 37 38 38 39 41 42 42 40 36 32 31 34 38 39 39 39 39 40 41 42 42 42 41 40 37 36 37 37 36 35 34 33 32 30 28 28 26 25 24 21 19 15 10 6 6 12 22 32 37 37 34 31 29 27 26 25 23 21 20 18 16 14 13 12 11 9 9 8 7 6 6 5 5 5 5 5 5 5 6
30 30 29 27 27 26 25 25 26 28 30 29 29 30 29 26 27 32 35 34 35 37 39 40 39 39 40 39 38 36 36 36 36 35 34 33 32 30 27 22 19 17 16 14 15 13 8 4 4 13 26 36 39 33 24 18 15 13 13 14 13 11 9 8 7 6 6 5 5 4 4 4 4 3 2 3 3 2 3 3 3 4 4 4 4
24 23 22 20 19 17 16 16 16 16 16 15 15 16 16 15 16 19 19 19 21 24 27 29 31 32 34 35 36 37 36 34 33 32 28 24 22 20 17 11 7 8 9 8 6 4 5 14 26 35 36 29 18 11 8 8 8 8 7 5 4 4 3 3 3 3 3 3 3 3 3 4 5 6 7 7 7 6 6 5 4 5 4 4 4
21 20 18 18 16 14 14 12 11 11 10 9 9 9 8 8 7 6 7 8 9 9 10 13 15 17 21 25 26 26 26 25 24 20 14 11 11 10 7 6 6 7 5 4 8 19 30 38 36 26 15 8 6 7 7 6 5 4 3 3 4 4 3 3 3 3 3 5 7 11 16 20 24 26 27 26 25 25 22 19 18 16 14 14 13
17 16 16 15 14 13 12 10 9 9 8 6 7 6 5 6 6 6 6 6 5 5 6 5 5 7 9 11 12 14 15 13 10 8 8 8 6 5 6 7 7 8 13 26 40 46 39 27 15 8 6 7 7 6 5 4 5 4 4 3 3 2 3 4 5 8 13 19 26 32 37 40 42 45 46 47 47 47 44 41 38 35 32 30 27
14 15 14 13 13 11 10 9 8 7 7 7 7 6 6 7 6 5 5 5 5 6 5 5 5 6 6 6 7 7 6 6 7 9 8 5 6 11 16 18 24 38 51 55 47 31 15 7 6 7 7 6 6 6 6 6 5 4 3 4 5 6 8 10 15 24 33 40 45 49 52 55 59 62 64 64 64 65 63 60 58 57 56 55 56
11 12 11 10 10 9 8 9 8 7 8 7 6 6 7 6 6 7 7 6 5 4 4 6 6 5 5 7 7 7 8 11 10 7 8 17 29 37 40 48 63 70 59 36 16 8 7 8 8 7 7 7 8 8 7 6 5 5 5 6 8 12 17 24 34 44 51 57 63 69 74 78 80 80 81 81 80 83 85 83 81 81 82 84 88
13 12 11 10 10 9 8 8 7 7 7 7 7 8 7 6 6 6 3 4 10 18 24 25 21 18 16 14 13 15 15 12 13 26 47 63 66 64 69 75 69 48 23 9 7 9 8 7 7 8 9 9 8 8 7 6 5 5 7 11 17 24 34 44 54 61 68 75 84 89 90 89 88 89 93 95 95 97 100 100 98 97 95 97 100
18 15 12 9 8 8 8 8 8 8 7 7 6 5 4 6 8 10 20 39 57 68 70 62 46 33 26 23 24 27 29 36 54 77 91 90 82 81 80 63 35 14 8 9 10 8 7 8 10 10 10 10 9 9 8 6 5 7 13 21 32 42 52 61 68 72 79 85 90 90 88 87 88 91 95 96 96 97 98 99 98 96 94 95 97
20 16 14 11 9 8 7 6 6 5 4 7 10 16 26 36 44 53 70 86 94 99 102 85 54 33 31 38 47 58 73 87 96 95 90 88 86 77 54 26 10 9 12 9 7 8 9 10 10 10 11 11 10 8 7 5 6 12 22 35 49 60 69 74 75 73 73 76 80 83 84 85 88 91 94 97 98 97 97 97 97 97 97 97 98
20 13 10 7 6 8 10 13 20 29 38 46 53 64 78 88 92 96 101 101 100 104 100 77 49 41 54 70 86 99 103 97 86 80 83 84 70 43 20 11 12 13 9 7 9 10 9 10 12 13 12 11 9 8 6 5 8 17 31 49 65 75 80 80 79 77 75 74 77 82 84 87 90 93 94 92 88 82 80 80 80 80 81 80 79
19 20 25 30 39 49 54 58 69 81 89 92 94 98 99 94 88 86 88 89 91 86 71 58 60 76 91 98 100 93 80 71 74 82 79 60 34 17 14 15 13 9 8 10 10 9 10 13 14 13 12 11 9 7 5 6 12 23 42 64 78 84 87 90 90 88 85 83 86 89 90 92 94 91 84 77 72 70 70 70 71 72 73 72 71
59 70 77 83 91 96 94 94 98 100 99 99 100 95 80 63 55 53 52 53 53 48 49 65 90 102 100 89 73 60 61 77 87 77 51 27 16 16 16 12 9 10 10 9 8 10 14 15 14 14 14 10 7 6 5 8 16 30 53 76 88 91 93 96 94 91 91 94 95 92 90 92 92 84 77 75 77 78 76 72 70 70 73 77 81
99 101 101 102 104 103 101 101 102 100 98 99 102 97 83 73 72 74 71 68 65 62 69 85 97 94 86 77 71 73 86 93 75 45 24 17 17 16 13 11 12 11 8 8 11 14 14 15 16 16 12 8 8 7 5 8 21 40 62 83 95 97 97 97 97 96 96 94 89 87 90 94 90 82 82 84 83 78 73 71 69 66 66 70 74
101 101 101 101 101 102 102 101 100 100 100 100 101 101 97 93 95 97 97 96 95 94 94 98 98 94 90 91 95 98 92 71 44 26 21 20 16 15 14 13 11 9 9 12 13 13 15 17 17 14 11 10 8 6 5 10 25 48 71 87 96 98 98 98 98 96 92 88 87 91 95 92 86 87 92 88 78 73 78 85 88 87 85 84 80
100 101 100 100 100 100 101 100 99 100 101 100 100 101 99 97 98 100 101 101 101 100 101 101 100 100 100 102 99 88 67 45 32 26 22 18 17 17 15 12 10 11 12 12 13 14 16 17 16 13 12 10 7 6 7 11 28 57 81 91 96 100 101 98 96 94 91 88 86 85 86 86 89 95 93 76 66 74 88 94 96 98 99 98 93
101 100 99 100 101 100 100 100 100 100 100 100 100 100 99 99 100 101 101 101 100 100 101 100 100 101 101 94 80 63 47 37 32 26 22 21 20 17 14 12 12 12 12 13 15 15 15 16 16 14 12 10 8 8 6 10 31 66 89 95 98 103 101 97 97 93 83 75 72 73 79 84 86 87 80 64 62 81 96 95 93 98 101 100 100
100 101 100 100 100 100 100 101 100 100 101 101 101 100 100 100 100 100 100 100 100 100 101 101 100 99 91 76 61 51 44 38 32 28 26 23 19 15 15 14 12 12 14 16 16 15 16 17 16 14 12 10 8 7 6 9 32 69 94 100 100 101 100 100 96 81 67 64 69 73 75 75 74 83 88 75 65 79 96 97 94 98 101 100 101
100 101 100 100 100 100 100 101 100 100 101 101 100 100 100 100 100 101 101 100 100 101 101 100 97 91 79 66 57 51 45 38 33 29 25 20 18 17 15 14 13 13 15 16 17 18 18 17 15 14 13 11 8 8 7 9 29 68 98 102 97 100 104 98 84 68 64 70 70 66 69 77 84 97 104 86 61 64 87 98 97 99 101 101 102
100 101 100 100 101 100 99 100 100 100 101 101 100 100 100 100 100 101 100 101 101 101 99 96 90 82 72 64 57 50 43 37 32 27 23 20 19 17 15 14 14 14 15 17 19 19 17 17 16 15 13 11 8 9 8 8 25 64 97 102 97 102 104 90 74 68 69 70 66 69 84 96 98 101 102 82 52 47 66 80 87 96 103 103 103
101 101 100 100 101 100 100 101 100 100 100 100 100 100 100 101 101 102 102 102 100 97 93 87 80 72 65 60 54 48 42 37 32 28 25 22 20 18 17 16 15 15 17 19 21 20 19 17 16 14 13 12 10 8 9 9 20 53 89 102 99 101 101 87 72 67 66 68 77 92 101 101 97 102 101 76 42 32 44 55 59 70 82 91 98
100 100 100 100 100 100 100 100 101 101 101 100 100 101 101 101 102 102 100 97 94 90 85 79 73 68 63 58 52 48 44 40 36 33 29 26 24 23 21 18 17 18 20 21 22 22 20 17 15 14 14 12 9 8 10 10 15 41 79 100 99 100 102 89 68 60 70 84 95 102 102 98 98 104 102 77 43 27 31 37 37 39 45 54 66
100 101 101 99 99 100 100 100 100 100 100 100 101 101 101 102 102 101 98 95 92 89 84 79 75 70 65 59 56 53 50 47 43 39 36 33 32 30 28 25 22 22 24 25 26 25 21 17 17 15 13 12 11 9 10 10 12 30 66 95 100 100 102 92 71 65 81 98 101 99 101 102 100 100 102 93 68 45 36 36 33 28 26 29 35
100 100 100 100 100 100 100 100 100 100 100 101 101 101 101 102 102 102 101 99 97 94 91 86 81 76 70 65 61 59 56 52 49 47 45 43 42 39 37 34 30 30 31 31 29 26 23 19 17 15 13 13 12 9 9 11 11 20 51 86 101 100 100 98 88 83 92 102 102 99 100 100 97 98 103 103 92 80 74 69 61 47 32 23 23
100 100 100 101 100 100 100 100 100 100 100 100 100 100 101 101 101 101 101 101 101 100 97 92 87 83 78 74 70 67 64 61 58 56 55 54 52 50 48 45 42 41 40 37 32 29 25 21 17 16 14 13 12 10 10 11 11 13 35 72 97 101 99 100 99 97 99 102 101 98 97 94 92 95 102 103 100 98 96 94 93 88 70 44 26
101 100 100 100 100 100 101 101 100 100 101 100 100 100 100 100 100 101 100 100 102 103 101 97 92 87 83 77 72 69 67 65 64 64 62 61 60 58 56 54 51 48 45 41 36 32 28 22 18 16 14 12 13 12 10 10 12 11 21 51 85 101 101 100 101 101 102 101 98 96 96 91 84 86 96 103 102 97 93 91 96 102 98 78 53
Wind_Speed
33 31 30 30 28 27 26 25 23 23 23 22 21 22 22 22 22 22 22 22 22 22 21 20 20 19 18 17 17 17 18 19 19 20 20 21 22 22 22 21 21 21 20 20 20 20 20 20 20 20 20 20 20 20 20 20 20 20 21 20 20 20 20 20 21 22 23 23 23 23 23 22 22 22 22 23 23 23 23 23 24 24 24 24 24
36 36 35 33 30 29 28 27 27 26 25 24 24 24 24 24 24 23 22 22 22 23 23 22 21 20 19 18 18 19 19 20 20 20 21 22 22 22 23 23 23 23 23 22 22 22 22 22 22 22 22 22 22 22 22 22 22 22 23 23 23 23 22 22 22 23 24 25 25 26 27 26 25 25 25 25 25 26 26 26 26 27 26 26 26
39 39 39 35 33 32 31 31 31 29 26 26 27 27 27 27 27 26 24 23 22 23 23 23 23 22 21 20 20 21 22 22 22 22 22 22 22 22 22 23 23 24 24 24 24 24 24 23 23 23 24 23 24 24 24 24 25 24 25 25 25 26 26 25 25 24 25 25 26 27 28 29 29 29 29 28 28 29 28 29 29 29 29 29 29
38 38 38 36 35 35 34 35 35 32 30 30 30 30 30 30 31 28 25 23 23 24 24 24 24 24 23 23 23 23 23 24 24 24 24 23 23 23 22 22 23 23 23 24 24 24 24 24 24 24 25 25 25 25 25 25 26 26 26 27 27 27 28 28 28 28 27 27 28 27 28 29 30 31 31 30 30 30 31 31 31 32 32 32 32
36 36 36 36 35 35 34 36 36 34 34 34 34 33 32 32 32 29 26 24 24 24 24 24 25 26 27 27 27 26 26 26 26 26 27 26 25 24 24 24 23 23 24 24 25 25 25 25 25 25 25 26 25 25 26 25 26 26 27 27 28 28 29 30 30 30 30 29 29 29 29 28 29 30 31 31 31 31 31 31 32 33 33 34 34
36 35 35 35 35 35 34 34 34 33 34 35 35 33 31 31 31 30 28 27 26 25 24 23 23 26 29 30 29 28 28 28 28 28 28 28 28 26 25 26 26 27 26 26 27 27 28 28 28 27 27 27 27 27 27 27 27 27 28 28 28 28 29 30 31 32 32 31 31 31 31 31 30 30 31 32 31 31 31 31 31 31 32 33 34
38 38 37 37 38 38 37 37 36 35 34 35 35 33 31 30 29 29 29 29 30 30 29 27 26 26 28 27 26 27 28 29 30 31 31 30 29 28 27 28 29 29 29 29 30 31 31 31 31 30 30 30 30 30 30 30 30 30 31 31 30 31 31 31 32 33 33 33 33 33 33 34 34 34 34 34 34 33 34 33 32 32 32 32 32
41 41 41 41 41 42 42 41 41 40 39 39 39 37 35 35 33 32 30 29 29 31 31 32 32 31 29 27 26 27 28 30 31 31 31 31 30 29 30 32 33 32 31 31 32 32 33 34 34 34 33 33 33 33 33 33 33 33 33 33 33 33 33 33 34 35 35 35 36 37 37 37 37 37 38 38 38 37 37 37 36 35 35 34 33
45 45 45 45 45 46 46 45 45 45 44 43 43 42 41 41 42 42 39 36 35 35 36 36 35 36 35 34 32 30 31 32 32 32 32 32 31 31 32 34 35 35 34 34 34 34 34 35 35 35 35 35 36 36 36 36 36 36 37 37 36 36 36 36 36 36 37 37 37 39 40 41 41 41 41 41 42 42 41 41 40 39 38 38 37
48 49 49 49 49 49 50 49 49 49 49 48 47 46 45 45 46 46 45 43 42 41 41 40 38 37 38 38 37 35 35 35 36 36 36 36 35 35 36 37 37 37 37 37 36 36 36 36 37 38 38 39 40 40 40 40 40 40 41 41 41 41 40 40 40 40 40 40 40 39 40 41 43 44 43 43 44 45 45 45 44 42 41 40 39
51 52 52 53 53 53 53 53 52 52 52 52 51 51 50 49 48 48 48 47 46 45 45 45 44 43 42 41 41 41 41 40 40 41 41 40 40 40 40 40 39 39 39 39 38 37 37 37 38 39 39 40 40 41 42 42 43 43 44 45 45 45 44 43 43 43 43 43 43 42 42 42 42 43 44 45 45 46 47 48 49 48 46 45 43
51 52 53 53 54 54 54 54 55 55 54 54 54 53 53 52 51 51 50 49 49 48 48 48 48 48 48 48 47 47 47 46 45 45 45 44 44 45 45 44 43 43 43 42 42 42 42 42 41 41 42 42 42 43 44 45 46 47 47 48 48 49 49 48 47 47 47 46 45 45 45 45 45 45 46 47 47 47 48 49 50 51 51 50 49
50 50 51 51 52 53 53 54 54 55 55 55 55 54 54 54 54 53 52 52 51 51 51 52 51 50 51 51 51 50 49 48 46 46 48 48 47 48 48 48 48 47 47 47 47 47 48 47 47 47 47 47 47 48 49 50 50 50 51 51 51 52 52 53 52 52 51 51 50 50 49 49 48 49 49 50 49 49 50 50 50 51 52 53 53
49 49 49 49 50 50 51 51 52 53 54 54 54 54 53 53 53 54 54 54 54 53 53 53 53 52 53 54 53 51 50 48 46 47 49 50 49 49 48 48 49 49 49 50 51 51 51 51 51 51 51 51 51 52 53 53 53 53 53 53 53 53 54 54 55 55 54 54 54 53 53 53 52 52 52 52 52 51 51 51 52 52 52 53 54
49 49 49 49 49 49 50 50 51 52 53 53 53 53 52 52 53 54 54 55 55 55 54 54 53 53 54 54 51 50 49 48 48 49 50 51 51 50 49 49 49 49 50 51 52 52 53 53 53 53 53 53 53 53 54 54 54 53 53 53 52 53 53 54 54 55 55 55 54 54 54 55 54 54 54 54 55 54 54 54 54 54 54 54 54
49 50 49 49 49 50 50 50 50 51 52 52 53 53 52 52 53 54 55 55 55 55 55 54 52 52 52 51 49 49 50 50 50 51 52 52 52 52 52 52 52 52 52 52 52 53 53 53 53 52 53 53 53 53 53 53 53 53 52 52 52 52 53 54 54 54 54 55 54 54 55 55 56 56 57 58 58 58 58 57 56 56 56 55 55
49 49 50 50 50 50 50 50 51 51 51 52 53 54 55 56 56 55 55 54 54 54 54 54 53 52 52 53 53 53 53 53 53 53 54 54 54 53 53 53 53 53 52 52 51 51 51 51 51 51 52 52 51 51 52 53 53 53 53 53 53 53 53 53 53 53 54 54 54 55 55 56 57 58 59 60 61 61 61 60 60 61 60 58 57
48 49 49 50 50 51 51 51 51 51 52 52 52 54 55 56 57 57 56 56 56 56 55 56 55 55 56 56 56 56 55 55 54 54 54 54 53 53 53 52 52 52 51 50 50 49 50 50 50 51 51 50 50 51 52 53 53 53 53 53 53 53 53 53 52 52 52 53 54 54 55 56 58 59 60 61 62 63 64 63 64 64 64 63 62
48 48 48 49 49 50 51 51 52 52 52 53 53 53 54 54 55 55 55 56 56 56 55 55 56 57 57 57 56 55 54 53 53 52 52 52 52 52 52 51 51 50 49 49 49 49 49 50 50 50 50 50 50 51 52 52 53 53 53 53 52 52 52 52 51 51 50 51 52 53 55 56 58 59 60 62 63 64 65 65 66 67 67 67 67
46 46 47 47 47 48 49 50 51 52 52 53 53 53 54 54 54 54 54 54 54 52 52 52 54 55 55 54 54 53 52 51 51 51 51 51 51 51 50 50 49 49 48 48 48 49 50 50 49 50 50 50 51 51 51 51 52 52 52 52 51 51 51 51 51 51 51 52 52 54 55 56 58 59 60 62 63 64 65 66 66 67 67 68 69
45 45 45 46 46 46 47 47 48 48 49 50 52 53 54 54 54 54 54 53 51 50 50 51 52 52 52 51 51 51 51 51 51 50 50 50 49 49 49 49 49 48 48 48 49 49 50 50 49 49 50 50 50 50 50 50 50 50 50 50 50 50 51 52 53 54 55 55 56 56 57 58 59 61 62 63 64 65 66 66 67 67 68 68 69
45 46 46 46 47 47 46 46 46 46 46 47 48 49 51 52 52 53 53 52 50 49 50 51 51 50 50 50 50 50 50 50 50 50 49 49 49 48 48 49 49 48 49 49 49 49 49 50 49 49 49 49 49 49 49 49 49 49 50 50 51 52 53 54 55 56 57 57 58 58 59 60 61 62 63 63 65 66 66 67 67 67 67 68 68
46 46 47 47 47 47 47 47 47 46 46 46 46 47 48 49 49 50 51 51 50 49 50 50 49 49 49 49 49 49 49 49 49 48 48 48 48 48 48 48 48 48 48 49 49 49 49 49 49 48 48 47 47 47 48 48 49 49 50 51 52 53 54 55 55 56 57 57 58 58 58 59 59 60 61 61 62 63 63 64 64 64 64 63 64
47 47 47 47 47 47 47 47 47 47 47 46 46 47 47 47 47 47 47 48 49 50 50 49 49 48 48 48 48 48 47 47 47 47 47 48 48 48 48 48 48 48 47 47 47 47 47 47 46 45 45 45 45 46 47 47 48 48 49 49 50 51 51 52 53 53 54 54 55 56 56 57 57 57 58 59 60 60 61 61 61 61 61 60 59
48 48 48 48 47 47 46 46 47 47 47 46 47 48 48 47 47 46 46 46 48 48 48 48 48 48 48 47 47 46 46 46 45 45 45 45 45 45 46 45 45 44 44 44 44 44 43 43 43 43 44 44 43 43 43 43 44 44 45 46 47 48 49 50 51 52 53 53 54 55 55 56 57 57 58 59 60 61 62 63 63 64 63 62 61
48 48 48 48 47 46 46 46 46 46 46 46 47 48 48 46 46 45 45 45 46 46 46 46 46 46 46 46 45 45 44 43 43 42 42 42 42 42 42 42 41 41 41 41 41 41 41 42 42 42 41 40 38 37 37 38 39 41 43 45 47 49 50 51 53 54 54 55 55 56 56 57 58 60 61 62 63 63 64 65 65 66 66 66 64
49 48 48 47 45 44 44 43 43 44 45 45 45 46 46 44 43 44 44 44 44 44 44 44 44 44 44 44 43 43 42 41 41 41 41 41 41 40 40 40 40 40 40 40 40 41 41 40 39 36 33 32 31 32 34 36 39 42 44 46 48 50 52 53 54 55 56 56 57 58 59 60 61 62 63 63 64 64 65 65 65 65 66 66 65
48 47 46 45 44 43 42 43 42 43 44 43 43 44 44 43 42 43 43 43 42 42 43 43 43 43 42 42 42 41 41 41 41 41 41 41 41 41 41 41 41 41 40 40 39 38 36 33 29 27 25 26 28 31 35 38 40 43 45 47 49 50 52 53 54 55 56 57 57 57 57 57 57 58 59 59 60 61 62 63 63 63 64 64 64
47 46 45 45 45 43 43 43 43 42 42 43 42 43 43 42 42 42 42 42 43 43 43 43 43 42 42 42 42 42 42 42 42 42 42 42 42 41 41 40 39 38 37 35 32 29 25 22 21 21 23 26 29 33 35 38 41 43 46 48 50 52 53 54 56 56 56 55 55 54 54 53 53 53 53 53 54 55 56 57 58 58 59 59 59
47 47 46 46 45 44 43 43 42 41 41 41 41 41 41 41 41 40 40 41 42 42 43 43 43 43 44 43 43 43 43 42 42 42 41 41 40 39 37 35 33 30 28 25 22 19 17 16 18 21 24 27 30 33 36 40 43 46 48 50 52 53 54 55 55 54 54 54 53 52 51 50 50 49 49 49 49 50 50 51 51 51 52 52 52
47 47 47 45 45 44 43 42 41 40 40 39 39 40 40 40 40 41 41 41 41 41 42 42 43 43 43 43 43 42 41 40 39 39 38 36 33 30 28 25 23 21 19 16 14 13 14 15 18 21 24 27 31 35 39 43 46 48 50 52 53 54 54 54 53 53 52 52 50 48 46 45 44 43 43 42 42 41 42 42 42 42 43 44 44
47 46 45 44 44 43 42 42 41 40 40 40 39 40 40 41 41 41 41 40 41 40 40 40 40 40 40 39 38 37 36 35 34 32 29 26 23 21 20 19 18 16 14 12 11 12 14 16 18 22 25 29 33 37 41 45 48 50 51 52 52 52 52 51 51 49 47 44 41 39 38 37 35 34 33 33 33 33 34 35 35 36 36 36 37
45 44 43 43 42 42 41 41 40 40 40 40 40 40 40 40 39 39 38 36 35 34 33 32 32 32 32 31 31 30 29 28 26 23 20 18 17 18 18 17 14 13 12 11 11 12 14 16 19 23 27 31 35 39 44 47 49 50 51 51 50 50 49 48 44 40 37 34 32 30 30 29 28 28 27 28 29 29 30 31 32 32 32 32 32
42 41 41 40 40 40 39 38 38 38 38 38 37 36 36 34 33 31 28 25 23 24 24 24 24 25 25 24 23 22 20 19 18 17 17 18 19 18 16 14 13 12 10 10 10 12 14 18 21 25 29 33 37 42 46 48 49 49 49 48 48 47 44 39 34 30 28 27 27 26 25 25 25 25 26 27 28 29 30 31 32 32 33 33 33
38 36 36 37 37 36 35 34 33 33 32 30 29 27 25 24 23 21 20 19 20 22 22 22 22 22 21 20 19 18 18 18 18 18 19 20 18 16 15 14 12 10 9 9 11 13 16 19 23 26 30 35 39 43 46 48 48 47 47 46 45 41 35 29 27 26 25 25 24 23 23 23 24 25 25 27 28 29 30 31 32 33 33 34 34
31 30 30 30 29 28 26 24 23 21 20 20 19 18 18 18 19 20 22 23 24 25 24 22 21 20 19 18 19 19 19 19 20 20 19 18 16 15 14 13 11 9 9 10 12 14 17 21 24 28 32 36 41 44 46 47 47 46 46 44 39 32 26 25 24 24 23 22 21 21 21 22 23 24 25 27 28 29 30 31 32 33 34 35 35
23 23 22 21 20 18 17 17 16 15 15 16 17 17 19 20 21 22 23 24 24 24 22 20 19 18 18 19 20 20 19 19 19 19 18 17 16 15 14 12 10 9 9 11 13 15 19 22 26 29 33 37 41 44 46 46 46 46 45 40 32 25 23 23 22 21 19 19 19 19 20 21 22 24 26 26 26 27 27 27 28 29 30 32 32
18 18 18 16 15 15 16 17 18 17 15 14 14 15 16 16 16 16 16 17 18 19 18 18 18 20 20 20 20 20 20 19 19 19 18 17 16 15 13 11 10 10 10 12 14 17 20 23 27 30 34 37 41 44 46 46 46 46 43 34 26 23 22 20 18 17 16 17 18 18 19 20 23 25 25 23 22 22 23 24 25 25 26 27 27
14 16 16 13 11 12 13 15 17 18 16 14 13 12 12 12 11 11 11 12 13 15 16 18 20 21 21 21 20 20 20 19 19 18 17 16 15 14 12 11 10 10 11 13 15 18 21 24 27 31 34 37 41 44 45 46 46 45 39 29 23 22 20 17 15 15 15 16 18 19 20 23 25 24 22 20 21 23 26 27 29 28 27 26 26
8 9 10 9 9 10 11 12 15 18 18 17 15 13 12 12 12 14 15 16 16 17 18 20 20 21 21 21 20 20 20 19 17 16 16 15 14 13 13 12 11 11 12 14 16 18 21 25 28 31 34 37 40 43 45 46 46 44 36 26 21 20 17 15 14 14 15 17 19 21 23 23 22 20 20 22 24 25 27 28 28 28 26 25 24
5 5 7 8 9 10 11 12 15 19 21 20 18 17 16 16 18 20 20 19 20 22 22 22 22 22 22 21 20 19 18 17 16 16 15 15 14 14 13 12 11 12 13 15 17 19 22 25 28 31 34 37 40 43 44 45 46 43 34 24 18 17 15 13 13 14 16 19 20 20 20 18 16 18 21 23 24 25 25 23 21 20 20 20 19
6 6 8 9 10 11 11 12 13 15 18 19 20 20 20 21 23 25 25 23 22 23 23 22 22 22 21 19 18 17 16 16 16 16 15 15 15 14 13 12 12 12 14 15 17 19 22 25 28 30 34 37 40 42 44 44 44 40 31 21 16 14 13 11 12 15 18 19 17 15 13 14 15 17 20 21 22 22 20 17 16 16 17 15 14
7 7 7 9 9 10 9 9 10 11 12 14 15 16 17 19 22 24 24 23 23 22 22 21 20 19 18 17 16 16 16 16 16 16 16 16 15 13 12 12 12 13 14 16 18 20 22 25 28 31 33 36 39 42 44 45 44 37 27 18 14 12 11 11 14 17 17 14 11 10 11 12 14 15 17 19 20 19 18 16 15 15 15 13 11
7 6 6 7 8 8 8 8 9 9 9 10 11 12 14 16 18 19 20 20 21 20 19 17 16 16 15 15 16 16 16 16 16 16 16 15 14 12 12 12 13 13 14 16 19 20 23 25 28 30 33 36 39 42 44 45 43 36 24 16 13 11 11 13 16 15 12 9 8 8 10 12 14 16 18 19 18 18 17 16 14 12 12 11 9
6 5 5 5 6 7 7 7 8 8 9 9 10 11 13 15 16 17 17 18 17 16 15 15 14 15 15 15 16 16 16 16 15 15 14 13 12 12 13 13 13 14 15 17 19 21 23 25 27 30 32 35 38 40 43 44 43 36 24 16 12 10 11 13 14 11 8 6 7 10 13 15 16 17 17 16 15 15 15 15 14 12 11 10 8
4 4 4 5 6 6 7 7 7 8 9 10 10 11 13 14 15 15 15 15 14 14 14 14 14 14 15 15 15 15 14 14 13 13 12 12 12 13 14 14 14 15 16 17 20 21 23 24 26 29 31 34 36 39 41 43 43 38 27 17 12 10 10 12 11 7 4 5 9 12 14 14 13 14 14 13 13 13 13 13 14 14 13 12 10
4 5 6 6 6 7 7 7 7 8 8 10 11 12 12 13 14 14 14 14 13 13 13 13 14 14 14 14 14 13 12 12 12 12 12 13 13 14 14 15 15 15 16 18 20 21 22 24 25 28 30 32 34 37 39 41 42 39 31 20 12 10 9 9 8 4 2 5 8 10 10 11 12 12 12 12 12 12 12 12 13 13 13 13 12
8 8 8 7 5 5 5 6 6 7 8 10 11 12 12 13 13 13 13 14 13 13 13 13 13 13 13 13 13 12 12 12 12 12 13 14 14 15 15 16 16 17 17 19 20 21 22 23 25 26 29 31 33 35 38 39 40 39 34 24 13 8 6 7 5 2 1 2 5 7 8 11 13 13 12 11 12 12 12 13 13 13 12 12 12
10 10 9 8 5 4 4 5 5 6 8 9 10 11 12 13 13 14 14 14 14 14 14 14 14 14 14 13 13 13 12 13 13 13 14 15 15 16 16 17 18 18 18 19 20 21 22 23 24 25 27 30 31 33 35 38 38 38 36 28 16 8 6 5 4 2 2 4 6 7 8 10 12 12 12 11 10 11 12 13 14 13 13 12 11
11 10 9 8 6 5 5 6 6 7 8 9 10 11 12 13 13 14 14 14 14 15 15 15 15 15 14 14 14 13 13 13 13 14 15 16 16 17 17 18 19 19 19 20 21 21 22 23 24 25 26 28 30 31 34 36 37 37 36 30 19 10 8 7 7 6 6 6 7 7 7 9 10 11 12 11 9 9 9 10 11 12 13 12 11
11 9 8 8 7 7 6 6 6 7 8 9 10 12 13 13 14 14 14 14 15 15 15 15 15 15 14 14 14 14 14 14 14 15 15 16 17 18 18 19 19 20 20 21 21 21 22 22 23 24 25 27 29 30 32 34 36 36 36 32 23 12 10 10 10 9 9 8 8 7 7 9 10 10 10 10 10 9 8 7 7 9 11 11 11
Wind_Direction
261 266 264 260 256 253 253 254 257 261 264 266 265 266 268 269 267 266 264 265 266 266 265 264 262 262 262 262 263 264 265 265 265 266 265 264 263 262 260 259 259 260 261 263 265 266 267 267 265 263 262 261 261 261 261 262 264 267 270 271 270 270 269 269 269 271 272 272 272 271 269 266 263 260 257 256 257 257 257 257 258 258 258 258 258
260 265 267 264 260 258 256 255 257 259 262 264 263 264 266 267 267 265 261 259 261 263 264 263 262 260 259 259 261 263 264 265 266 266 267 267 267 266 265 264 263 262 262 263 263 265 266 268 269 268 267 266 266 266 266 266 265 265 267 269 271 272 271 271 272 273 274 275 275 276 276 274 271 267 264 261 260 259 257 257 258 258 259 259 258
261 265 266 262 259 261 262 263 263 261 263 265 263 263 266 268 267 264 261 257 256 258 260 262 263 262 261 260 261 264 266 268 268 267 267 268 269 269 268 267 266 265 264 264 265 266 266 266 268 269 270 270 270 270 271 272 272 272 271 271 272 273 273 273 273 273 275 277 277 276 278 279 279 276 273 269 266 263 261 259 258 257 257 257 258
262 266 266 260 259 263 268 271 268 263 263 265 263 262 267 271 267 261 261 259 257 257 257 258 260 261 262 262 262 265 267 268 269 269 268 267 267 268 267 266 266 265 265 264 264 266 267 267 267 268 268 269 270 271 272 273 275 276 276 276 276 276 276 276 275 274 274 276 277 276 274 276 278 280 279 276 273 270 267 264 262 260 259 257 257
261 263 262 258 258 262 265 268 266 262 261 263 265 265 268 272 266 259 262 265 262 259 256 257 259 258 259 261 262 264 266 267 267 267 268 269 268 268 268 267 266 265 264 265 265 265 266 267 267 267 268 268 269 270 272 273 275 277 278 279 279 279 279 278 278 277 276 275 275 276 275 273 273 276 277 278 277 275 272 269 267 265 264 262 260
260 259 257 255 256 259 261 264 263 261 260 262 266 268 271 270 261 255 263 268 264 259 257 258 262 260 258 259 262 263 264 266 266 265 265 265 267 268 269 269 267 266 265 266 267 267 267 267 267 267 267 267 268 270 272 274 275 277 278 279 280 281 281 280 279 278 277 275 273 274 276 276 275 274 274 274 275 277 276 274 272 270 268 267 266
262 261 259 258 259 260 261 262 262 261 261 262 264 268 272 269 259 256 264 267 263 261 260 259 262 264 262 262 261 258 259 264 266 266 265 264 264 266 268 269 269 269 269 269 270 271 271 270 269 267 267 267 268 270 271 273 274 275 276 277 278 279 280 280 280 279 277 275 273 273 274 276 276 276 276 275 274 275 275 275 275 275 274 272 271
263 264 264 262 262 262 262 263 264 263 263 263 265 267 268 267 264 265 269 268 264 265 266 264 265 267 268 269 267 262 261 263 264 267 268 265 262 262 264 266 267 268 270 271 271 272 273 274 273 271 271 270 271 271 272 273 274 275 276 276 276 277 278 278 278 278 277 276 274 273 272 273 274 274 275 275 276 276 275 274 274 275 276 276 276
261 264 265 266 265 265 265 264 265 265 264 264 265 267 267 266 267 269 269 268 267 268 268 266 265 266 267 270 272 268 264 263 266 271 274 270 265 263 264 266 267 267 268 269 269 270 271 271 272 271 272 273 274 275 275 275 275 276 277 277 276 276 277 277 277 277 277 278 277 275 274 272 272 272 272 273 274 275 275 275 274 273 274 275 276
259 260 263 265 266 267 267 267 267 267 268 268 268 268 268 268 268 270 270 269 267 267 267 266 265 265 266 268 268 267 266 266 269 273 276 275 272 269 268 270 271 270 269 269 271 272 271 270 270 270 271 272 274 275 275 275 276 276 277 277 277 276 276 277 277 277 277 277 278 278 277 275 273 273 273 273 273 273 273 273 272 272 271 272 273
259 259 260 262 264 265 266 267 268 268 269 270 270 271 271 270 270 270 270 270 268 267 267 266 267 267 268 267 267 266 267 268 270 274 275 276 275 273 271 271 272 272 271 271 272 274 274 273 273 272 272 272 272 273 274 275 276 277 277 278 278 278 278 277 277 277 277 277 277 277 277 276 274 273 274 274 274 274 274 272 269 268 269 269 270
259 260 260 261 262 263 264 265 266 267 268 269 270 270 271 272 271 270 270 270 269 269 267 266 266 267 268 268 268 268 269 270 272 274 275 274 273 272 271 270 271 272 272 272 273 274 274 274 274 273 272 272 272 273 274 276 277 278 278 279 280 280 280 280 279 278 278 278 277 276 276 274 274 274 274 275 275 275 275 274 270 268 267 267 267
259 260 260 260 261 261 262 263 263 264 265 266 267 268 269 270 270 271 270 270 269 269 269 268 267 267 267 268 268 269 270 271 273 274 274 273 271 270 270 270 270 271 272 273 274 274 275 275 275 274 273 273 273 274 274 275 276 276 277 278 279 281 281 281 281 280 279 279 278 277 276 275 273 273 273 274 275 275 274 274 272 269 267 265 265
261 260 261 261 261 260 260 260 261 262 262 263 264 264 266 267 268 269 270 270 269 269 268 268 269 268 268 268 268 269 270 271 272 272 272 272 273 272 272 271 271 271 272 273 273 274 275 275 275 275 276 276 276 275 276 276 276 276 276 277 278 279 280 280 280 280 280 279 278 277 276 276 274 273 272 272 272 272 272 271 271 269 267 265 264
263 262 262 262 261 261 261 260 260 260 260 261 261 262 263 265 267 268 268 269 269 268 268 268 269 269 269 269 270 271 272 271 271 270 271 273 275 276 276 275 274 274 274 273 274 274 274 275 275 276 277 277 277 277 277 277 277 277 277 277 278 278 278 278 278 278 278 278 278 277 277 276 275 273 271 270 269 268 268 267 267 267 266 264 263
263 263 263 263 262 262 262 262 261 261 260 260 259 259 260 262 264 264 265 266 267 267 268 267 268 269 270 272 272 272 273 273 273 273 274 275 277 278 278 278 277 277 276 276 275 275 275 275 276 276 276 276 277 277 277 277 278 278 278 278 278 278 277 277 277 276 277 277 276 276 275 274 273 272 271 270 269 268 267 265 265 264 263 262 262
263 263 263 263 263 263 263 263 263 262 262 261 260 259 260 261 262 262 263 263 263 264 265 267 268 270 271 272 273 273 273 274 275 275 276 276 276 277 277 277 277 277 277 276 276 276 275 275 275 275 275 276 277 277 277 277 278 279 279 279 279 278 277 277 276 276 276 276 275 274 274 273 272 271 270 269 268 268 267 266 265 264 263 261 260
264 263 263 263 262 263 263 263 263 263 263 263 263 262 262 263 265 265 265 265 265 265 267 269 270 271 271 272 272 273 274 275 275 275 275 275 275 275 275 275 275 275 275 276 276 275 275 274 274 274 275 276 276 276 276 277 278 279 279 279 279 278 278 277 277 276 275 274 274 273 272 271 270 270 269 269 268 268 267 266 266 265 264 263 261
264 264 264 263 263 262 262 261 261 262 262 262 263 263 264 264 266 267 267 268 268 268 269 270 270 270 270 271 272 272 273 273 273 273 273 273 273 273 274 274 273 274 274 274 274 274 274 274 274 275 276 276 276 276 277 278 278 279 279 279 279 278 278 277 276 275 274 273 273 272 271 270 269 269 269 269 269 269 268 267 267 266 265 265 264
265 265 265 265 264 264 263 262 262 261 261 262 262 262 263 264 265 266 266 267 268 269 269 269 268 268 269 270 270 271 271 271 271 271 271 271 272 273 273 273 274 274 274 274 274 273 274 274 274 275 276 276 277 277 278 278 279 279 279 279 279 278 277 277 276 275 274 273 272 271 271 270 270 269 269 268 268 268 268 268 267 267 267 266 266
265 265 265 265 265 265 265 264 264 263 263 263 262 262 263 263 264 265 265 265 267 268 267 266 267 267 267 268 268 269 269 270 270 270 270 271 272 272 273 274 274 274 274 274 274 274 274 275 275 276 276 277 277 278 278 278 278 279 279 279 279 278 277 277 276 276 276 275 274 273 272 271 270 269 268 268 267 267 267 267 267 267 267 267 267
264 263 263 264 264 264 265 265 265 265 265 265 265 264 264 264 264 265 265 266 266 266 265 265 266 266 267 266 266 266 267 268 268 269 270 270 271 272 272 273 273 274 274 274 274 274 275 275 276 276 277 277 278 278 279 279 279 279 279 279 278 278 278 278 277 277 276 275 275 274 272 272 271 270 269 269 269 269 269 270 270 270 270 269 269
263 263 263 263 264 264 264 265 266 266 266 267 267 266 266 266 266 266 267 266 265 265 265 265 266 266 266 266 265 265 266 266 267 268 269 269 270 270 271 271 272 272 272 273 274 274 274 275 276 276 277 277 278 278 279 279 279 279 279 278 278 278 277 277 277 277 277 276 276 275 274 274 273 272 272 272 272 272 272 272 273 273 272 272 271
263 263 263 263 264 264 264 265 266 266 267 268 268 268 268 268 268 269 269 267 266 265 265 265 265 265 265 266 266 266 266 266 267 267 268 268 269 269 269 270 271 271 272 272 273 273 274 275 276 277 277 278 279 279 280 280 280 280 280 279 279 279 278 278 278 278 278 278 278 278 277 277 276 276 275 275 274 274 274 274 274 273 273 272 272
264 263 264 264 264 264 264 264 265 266 266 267 267 267 267 268 269 269 269 268 267 267 266 266 265 266 266 266 267 267 267 267 267 268 268 268 268 269 269 269 270 271 272 272 273 274 275 277 278 279 280 281 281 282 283 283 282 282 282 281 281 281 281 281 281 281 280 280 280 279 279 278 277 277 276 275 274 274 273 273 273 272 272 272 272
265 265 265 265 265 265 265 265 265 265 265 265 265 266 267 268 268 268 267 267 267 267 267 267 267 266 267 267 267 268 268 269 269 269 269 269 269 269 270 271 271 272 273 273 274 276 277 279 280 281 282 283 284 284 285 285 284 284 284 283 283 283 283 283 283 282 282 282 281 280 279 278 277 276 274 273 271 270 269 269 269 269 269 269 270
266 266 267 267 267 267 266 265 264 264 263 263 263 264 266 266 267 267 266 266 266 266 266 267 267 266 267 267 268 269 270 270 270 270 270 271 271 271 272 272 273 274 274 275 276 278 279 280 281 282 283 284 286 286 286 285 285 284 284 284 284 284 284 283 283 283 282 281 280 279 278 276 275 273 272 271 270 269 268 267 267 266 266 267 267
268 268 269 269 268 267 266 265 263 262 262 263 262 263 264 265 265 265 266 266 266 266 265 265 265 266 267 268 268 269 269 269 269 269 270 271 271 272 272 273 274 275 275 276 277 277 278 279 279 281 284 286 286 286 286 286 287 288 289 289 289 289 288 287 286 285 284 283 282 281 280 278 276 274 273 271 270 269 268 268 267 267 266 266 266
269 269 269 268 267 266 265 264 263 262 262 263 263 263 263 263 264 264 264 265 265 265 265 265 265 265 265 265 266 266 266 267 267 268 269 270 270 271 272 272 273 273 273 274 275 275 276 276 279 283 286 287 288 290 292 294 296 297 297 296 295 293 292 291 290 289 289 288 286 285 284 282 280 278 276 274 272 270 269 268 268 267 267 266 266
268 268 267 267 267 266 266 265 264 263 262 262 263 263 263 263 263 263 262 262 262 263 263 263 263 263 263 263 264 264 265 265 266 267 267 268 268 269 270 270 269 270 270 270 270 270 271 275 281 286 289 292 297 301 304 306 305 304 302 300 298 296 295 294 293 292 291 290 289 287 286 283 281 279 277 275 273 272 271 270 268 267 267 266 266
266 266 266 266 266 266 266 266 266 264 263 262 262 262 263 262 262 262 262 262 262 262 261 261 261 260 260 261 261 261 261 262 262 263 264 264 265 265 264 264 264 265 264 260 257 261 269 278 286 292 298 304 309 312 312 311 308 306 304 301 300 298 297 296 295 293 292 291 289 287 285 283 281 279 278 276 274 273 273 272 270 269 268 267 266
265 265 265 265 266 266 266 265 265 265 264 263 262 262 262 262 262 262 261 260 259 259 258 257 257 256 256 256 256 256 256 257 257 258 258 258 257 257 259 260 260 256 251 246 249 262 276 287 295 303 309 312 315 315 314 312 310 308 305 303 301 299 298 297 295 293 291 289 288 286 284 282 281 280 279 278 277 276 276 275 275 273 271 270 269
266 266 266 265 265 265 265 265 265 264 264 263 262 261 261 260 259 258 256 255 254 253 252 252 252 251 250 250 249 249 250 250 249 249 250 251 253 258 259 255 246 237 234 242 258 274 287 297 305 310 313 315 316 316 315 313 311 309 307 305 303 301 299 298 295 292 290 289 287 284 283 282 283 283 283 283 282 280 279 278 277 276 274 272 271
266 267 267 266 265 265 265 265 264 263 262 260 259 257 256 253 251 249 247 246 246 248 250 250 248 245 243 241 240 240 242 242 240 241 247 254 256 255 246 234 225 225 235 253 271 286 298 305 309 312 315 317 318 317 315 314 313 312 310 308 306 304 301 298 294 291 290 289 287 285 285 285 287 287 286 285 284 282 280 279 278 276 275 273 272
265 266 266 265 264 263 263 261 258 256 254 252 250 247 243 241 238 234 231 229 232 240 249 250 246 241 237 232 230 232 234 235 237 244 251 253 247 234 222 217 220 231 247 268 284 295 303 308 312 316 318 319 317 316 316 317 317 315 313 311 309 306 302 298 294 292 290 289 288 287 287 288 289 289 288 287 285 284 282 280 279 278 277 275 273
260 260 259 259 258 256 252 247 242 239 237 235 232 228 225 227 229 229 229 230 233 238 243 244 240 236 230 229 235 239 237 237 243 248 246 237 224 215 213 217 225 240 260 278 291 300 306 311 316 319 320 318 317 318 320 322 320 319 317 316 312 307 303 299 296 293 292 291 290 289 290 291 292 293 293 292 290 287 285 283 281 279 278 276 274
247 245 244 245 243 238 230 220 211 208 211 216 220 224 227 229 231 230 229 229 230 232 234 234 233 231 230 235 242 245 244 243 242 237 227 217 211 210 212 220 233 253 271 284 295 304 310 316 320 321 319 318 320 323 326 326 325 323 322 319 313 308 305 301 296 294 292 292 292 293 294 295 298 300 300 298 295 292 289 286 283 280 278 276 275
223 220 219 220 220 216 213 207 201 200 205 212 218 224 223 218 216 216 217 218 221 224 226 228 231 234 238 242 244 244 242 236 227 218 212 210 210 211 217 228 243 259 274 287 298 307 314 319 321 320 319 321 324 328 331 330 328 326 324 320 313 309 307 301 294 292 294 294 294 296 298 302 307 308 307 304 303 302 300 297 293 288 283 280 276
199 195 196 198 197 196 198 197 196 201 213 223 227 227 218 203 196 203 212 218 223 226 228 230 234 238 241 241 238 234 227 219 212 209 209 209 211 217 227 238 249 263 277 290 302 311 317 320 321 320 321 324 329 333 335 334 331 328 326 321 313 310 308 300 293 294 297 297 299 304 307 310 311 311 312 313 314 313 311 307 303 298 293 287 281
181 182 189 194 192 191 195 198 201 210 224 237 243 243 236 222 215 219 224 229 234 236 237 238 239 238 235 230 223 216 211 208 208 209 211 212 218 227 235 243 254 268 281 295 306 314 318 320 321 322 324 328 333 337 338 336 334 331 328 322 314 310 307 300 296 297 299 304 309 312 312 311 311 314 318 319 318 314 310 307 302 298 294 290 284
198 213 221 220 214 211 214 217 215 218 226 237 245 247 244 235 226 224 228 235 240 242 241 239 234 226 218 212 207 205 207 209 211 213 215 220 227 234 240 248 261 273 286 300 308 314 318 321 322 324 327 330 335 340 341 339 336 333 328 322 315 309 305 301 300 301 307 313 314 312 309 310 316 322 323 320 317 313 310 309 309 306 301 294 286
217 228 230 229 226 222 222 224 222 222 226 232 237 241 243 238 232 230 234 238 239 236 231 223 214 206 202 200 202 206 211 214 217 221 225 230 235 240 246 255 266 278 291 302 308 314 318 321 323 326 329 332 337 341 343 341 338 334 328 321 314 308 303 302 306 312 316 317 313 310 314 322 328 328 325 322 320 318 317 323 331 332 325 311 295
225 228 226 222 219 217 216 216 217 218 221 225 227 230 235 236 233 231 230 229 224 218 211 203 197 195 196 199 206 212 217 221 225 228 233 237 242 247 254 262 272 283 294 303 309 314 319 322 324 328 331 334 338 343 344 343 341 337 329 318 311 307 303 307 316 320 322 319 317 324 332 333 330 329 329 329 327 328 331 337 341 343 341 334 317
227 228 223 215 210 207 204 202 202 204 207 210 212 216 221 224 222 218 213 208 204 200 196 193 193 197 202 209 215 220 224 228 231 234 239 244 250 256 263 270 278 287 297 305 311 315 319 322 326 329 332 335 340 344 345 344 343 340 332 318 310 307 306 315 324 326 325 326 333 340 339 334 331 331 333 334 334 337 343 349 350 350 352 351 342
216 220 217 206 202 199 195 192 193 194 194 195 198 204 207 207 205 202 198 194 192 191 192 194 200 207 213 218 222 226 230 233 236 240 245 251 259 265 270 276 283 290 299 306 311 315 319 322 326 330 332 335 340 345 346 345 345 344 337 323 312 309 313 324 329 329 329 341 352 349 343 341 338 334 334 337 340 343 351 1 6 10 12 10 5
196 192 184 180 183 188 189 190 194 196 195 192 193 195 196 195 193 192 191 190 190 193 198 203 210 216 220 223 227 230 234 239 243 249 255 261 267 271 274 279 286 292 299 305 310 313 318 321 325 329 332 335 341 346 347 346 347 346 342 330 311 304 315 328 331 330 347 11 5 356 352 349 343 337 340 347 351 352 359 9 16 22 29 31 31
151 140 145 154 164 172 177 184 192 197 199 199 197 196 194 195 196 196 195 195 198 203 208 213 219 223 227 230 234 238 243 249 254 259 264 267 271 276 279 283 287 292 297 302 307 312 316 320 324 329 332 335 340 345 348 348 348 348 345 336 313 298 313 330 333 336 32 31 11 1 354 347 342 345 355 4 5 4 9 18 23 28 35 39 41
149 139 138 141 147 155 163 173 185 195 202 205 204 202 201 202 204 204 204 204 207 212 218 224 230 234 237 241 245 249 254 259 261 264 268 272 275 280 283 286 288 291 295 300 306 310 314 319 323 327 331 334 339 344 348 349 349 349 347 341 320 291 299 326 334 341 63 13 356 356 355 348 348 355 5 12 15 18 23 27 30 33 38 44 48
174 169 163 160 162 171 177 180 186 195 205 210 211 210 211 212 213 214 215 217 220 225 229 234 239 242 245 249 253 257 261 264 265 267 271 274 277 281 285 287 288 290 294 300 305 309 313 317 321 325 329 332 337 342 347 349 350 350 349 344 328 289 271 295 308 289 277 302 318 336 352 355 357 1 3 6 16 26 30 33 35 36 38 43 50
190 188 184 183 188 194 196 196 196 197 204 212 216 217 220 222 222 224 226 227 230 233 237 240 244 247 250 254 257 260 263 265 267 268 272 275 279 283 286 288 289 292 295 299 303 307 311 315 318 322 326 330 335 341 345 348 350 350 350 346 335 299 263 267 275 271 275 291 302 317 337 348 355 1 3 5 10 18 23 29 36 37 36 40 46
203 207 209 211 213 210 205 202 201 201 206 213 217 219 221 224 226 229 232 234 237 239 241 244 247 251 253 256 259 260 262 264 266 269 273 277 280 283 286 287 289 291 294 297 301 306 309 312 315 319 324 329 334 339 343 346 349 350 350 349 344 320 273 263 268 269 270 277 284 291 309 329 344 357 4 6 7 7 9 19 37 44 44 45 46